Vorticity
-2 7 -2 7 -11 6 10 5 17 28 23 24 6 3 6 5 4 4 4 4 6 5 6 6 6 5 4 4 5 6 6 -1 6 4 -2 12 8 8 7 8 8 9 8 6 6 7 9
10 5 -5 1 6 1 -2 11 1 10 28 40 30 14 4 2 8 5 3 3 5 6 5 5 5 6 5 6 5 4 5 7 6 5 7 3 9 9 8 9 9 7 7 6 10 10 8
6 6 10 0 6 9 -2 1 3 7 13 16 25 35 24 16 0 7 6 4 4 4 4 4 4 5 6 7 6 5 9 -2 3 -2 9 10 10 11 10 7 6 6 9 10 9 10 9
7 4 6 10 4 5 -1 8 1 0 1 4 6 14 28 32 23 11 5 9 3 6 5 5 6 3 7 8 6 8 6 5 6 6 12 8 11 9 8 7 8 10 7 7 9 8 3
6 7 7 6 7 9 6 2 10 -0 0 4 2 5 4 11 20 25 23 13 7 8 4 5 7 8 9 9 9 9 6 5 7 -2 11 14 10 7 8 9 9 7 8 10 8 3 1
5 5 6 8 8 6 7 6 12 2 2 2 4 -1 1 3 11 10 27 23 20 -7 11 11 9 12 14 9 9 7 3 6 -3 14 11 7 7 7 10 8 7 8 11 9 2 1 3
5 4 5 4 6 8 8 7 7 12 1 1 -1 -1 2 -0 3 11 4 25 24 31 12 7 13 10 7 6 9 4 7 6 12 7 8 8 9 10 7 9 7 10 9 2 0 4 4
4 3 4 5 6 7 8 7 8 8 9 7 2 -0 1 2 3 11 10 29 9 15 14 8 11 13 11 9 9 12 9 9 6 17 6 10 9 9 10 9 9 8 3 1 3 4 7
6 4 3 4 5 4 5 6 7 8 8 8 12 7 2 5 3 12 15 28 7 9 8 6 8 8 10 17 11 7 8 2 1 8 9 9 9 8 9 9 8 6 2 2 4 7 5
9 6 4 4 4 3 2 2 6 7 8 7 7 11 8 3 3 6 15 19 12 4 11 9 10 10 16 8 2 -4 -3 16 9 7 10 7 8 9 8 8 8 3 1 3 7 5 5
9 9 6 4 3 5 3 5 4 6 8 8 7 7 7 8 1 2 17 10 24 2 6 16 11 11 6 -1 6 1 22 6 8 9 4 11 8 10 10 8 6 3 3 5 7 4 5
6 8 9 6 5 4 5 4 6 5 6 8 8 6 7 6 3 5 16 10 16 13 11 14 11 4 5 10 14 40 10 8 4 6 8 5 9 8 8 8 6 3 2 7 4 5 6
15 3 9 8 5 5 6 5 5 6 6 7 7 6 6 3 4 3 10 8 8 12 3 13 -2 7 6 9 12 27 7 7 11 8 6 10 9 9 8 8 6 3 5 6 6 5 4
16 17 2 10 7 5 6 5 4 7 6 6 7 7 6 5 3 6 8 11 11 15 9 1 3 1 20 7 5 11 12 13 5 5 11 8 9 9 7 8 5 4 6 7 6 6 6
9 18 14 3 9 6 5 6 4 8 7 6 6 6 6 8 6 9 7 11 8 6 8 10 8 -2 11 -1 8 11 7 5 5 9 8 8 8 9 7 6 4 5 7 8 5 5 3
7 9 16 11 7 7 6 5 6 7 7 6 6 6 6 5 8 8 10 11 5 1 3 6 7 6 11 7 10 8 7 8 8 10 8 7 8 9 7 8 6 6 5 6 6 6 4
14 10 12 13 8 8 6 6 6 7 7 5 5 6 5 6 8 7 10 7 9 17 13 7 6 13 6 5 7 7 8 8 8 5 7 10 10 9 8 7 4 6 7 8 6 6 3
11 15 10 18 10 9 7 5 5 6 7 6 5 7 6 7 7 8 9 13 8 15 5 3 12 8 6 7 9 9 8 7 5 7 7 7 7 8 8 7 5 5 8 8 9 5 9
5 16 10 12 15 8 9 6 5 6 7 6 5 7 7 7 5 8 9 20 5 15 4 10 8 7 8 9 9 7 7 7 8 9 11 12 9 9 8 8 8 9 10 8 5 6 12
8 5 20 10 15 9 8 6 5 6 7 6 5 6 7 6 9 8 16 23 6 7 10 7 8 9 9 8 6 7 7 7 7 6 8 9 9 9 10 10 10 10 9 9 8 13 5
11 8 11 13 10 15 4 8 6 7 7 6 6 6 7 7 10 12 14 11 6 10 7 6 11 9 5 4 6 8 8 8 8 6 5 4 9 10 11 12 12 15 14 12 11 4 15
11 8 4 19 13 24 5 7 7 6 7 6 6 6 6 9 14 10 10 6 8 5 6 11 6 4 4 7 8 7 4 9 4 10 15 17 19 24 26 28 22 18 14 12 8 16 13
10 14 6 17 13 22 9 6 9 8 7 7 7 6 11 8 9 10 7 6 3 6 11 6 4 6 9 8 18 23 23 24 26 22 14 22 56 45 37 29 23 17 12 10 17 11 10
17 11 11 17 16 14 -8 10 9 6 7 6 8 4 10 10 10 10 5 4 6 11 6 6 7 9 20 24 19 22 23 25 43 58 74 50 14 7 15 28 20 19 17 17 12 10 17
24 10 10 14 21 5 3 9 9 5 7 8 6 8 9 12 7 5 5 6 10 6 6 7 8 21 1 7 5 11 21 35 41 16 11 38 29 41 17 24 24 20 16 13 14 15 8
31 17 11 12 20 6 5 9 7 6 6 11 4 10 9 7 6 5 5 8 6 6 7 7 13 11 5 10 5 6 9 17 16 17 21 15 25 16 9 23 26 18 16 17 9 7 4
33 20 9 10 18 7 14 4 7 6 9 8 8 10 9 7 6 6 8 6 4 7 8 9 12 -1 -0 3 7 2 9 11 11 11 15 11 12 14 16 15 14 17 20 5 4 7 4
31 21 10 11 15 8 2 9 7 6 11 5 8 10 7 6 5 6 6 5 7 7 5 9 7 5 -0 -1 5 7 3 10 16 10 9 11 13 11 11 16 14 10 6 -0 5 6 6
33 21 12 11 16 5 4 10 5 8 9 9 8 9 9 3 6 5 7 6 7 10 3 5 12 6 -0 -3 -2 6 6 5 10 12 11 11 13 15 15 6 3 4 -1 5 5 5 3
Height
5774 5778 5781 5781 5786 5786 5786 5787 5790 5791 5791 5794 5797 5799 5803 5807 5809 5812 5814 5816 5818 5821 5822 5823 5824 5824 5824 5824 5824 5824 5824 5824 5823 5824 5825 5826 5823 5821 5820 5820 5818 5817 5817 5818 5817 5815 5814
5768 5772 5775 5779 5781 5783 5784 5785 5787 5788 5787 5788 5789 5792 5796 5800 5803 5806 5808 5811 5812 5814 5816 5818 5819 5820 5819 5820 5819 5819 5819 5820 5819 5819 5819 5821 5820 5817 5816 5815 5815 5814 5813 5812 5812 5811 5809
5762 5765 5769 5773 5775 5779 5781 5783 5784 5785 5785 5785 5785 5787 5789 5793 5797 5799 5802 5804 5806 5808 5810 5813 5814 5815 5815 5816 5813 5814 5815 5815 5815 5815 5815 5814 5814 5813 5812 5810 5811 5810 5809 5809 5807 5806 5805
5754 5757 5763 5767 5771 5775 5778 5779 5780 5782 5784 5784 5784 5784 5786 5787 5789 5792 5794 5797 5799 5802 5803 5806 5807 5809 5810 5810 5809 5810 5811 5810 5810 5811 5811 5811 5810 5808 5808 5807 5806 5804 5805 5805 5803 5802 5801
5746 5751 5757 5761 5765 5768 5772 5774 5777 5779 5781 5783 5782 5783 5784 5784 5784 5785 5787 5790 5793 5795 5797 5800 5802 5801 5804 5805 5806 5806 5807 5806 5807 5806 5807 5807 5806 5805 5804 5803 5802 5800 5800 5799 5799 5798 5796
5739 5744 5749 5754 5758 5761 5766 5771 5772 5775 5778 5780 5781 5782 5782 5782 5782 5781 5781 5782 5785 5790 5791 5793 5796 5798 5798 5800 5800 5802 5802 5803 5802 5802 5803 5803 5803 5801 5800 5800 5799 5797 5797 5797 5796 5795 5792
5730 5735 5742 5747 5751 5755 5760 5765 5768 5771 5774 5776 5778 5779 5780 5779 5779 5778 5778 5778 5781 5783 5785 5789 5791 5793 5794 5796 5796 5796 5796 5798 5798 5799 5799 5799 5799 5797 5796 5795 5795 5794 5794 5794 5792 5791 5789
5720 5727 5734 5739 5744 5750 5755 5759 5762 5766 5768 5770 5774 5777 5776 5776 5775 5774 5774 5774 5776 5779 5782 5784 5786 5788 5789 5791 5792 5792 5793 5794 5794 5794 5794 5795 5794 5793 5792 5791 5791 5791 5791 5790 5789 5788 5785
5711 5719 5726 5732 5737 5743 5749 5752 5757 5761 5763 5766 5769 5773 5772 5771 5772 5772 5771 5771 5772 5775 5778 5780 5782 5784 5786 5787 5787 5788 5788 5788 5789 5790 5789 5789 5789 5789 5788 5788 5787 5787 5787 5787 5786 5783 5780
5701 5709 5716 5723 5731 5736 5741 5746 5751 5755 5758 5762 5765 5768 5767 5769 5771 5769 5768 5768 5769 5771 5774 5777 5778 5780 5781 5782 5783 5783 5783 5784 5785 5785 5785 5785 5785 5784 5784 5783 5783 5783 5783 5782 5780 5778 5775
5691 5700 5708 5715 5722 5729 5735 5741 5745 5749 5754 5757 5760 5762 5763 5765 5767 5766 5766 5765 5766 5769 5772 5774 5775 5776 5777 5779 5779 5778 5777 5779 5780 5780 5782 5782 5780 5780 5779 5779 5779 5779 5778 5777 5775 5772 5770
5681 5689 5698 5706 5713 5721 5728 5733 5739 5744 5748 5752 5755 5757 5759 5761 5762 5763 5762 5764 5765 5768 5769 5770 5771 5772 5774 5774 5773 5772 5774 5776 5776 5776 5776 5777 5776 5776 5775 5775 5774 5774 5773 5771 5770 5768 5766
5669 5679 5688 5697 5705 5712 5720 5726 5733 5739 5743 5747 5750 5753 5755 5757 5760 5760 5762 5763 5765 5765 5768 5769 5769 5770 5770 5770 5770 5770 5771 5772 5772 5772 5772 5771 5771 5771 5771 5770 5770 5769 5768 5766 5766 5763 5762
5657 5667 5678 5688 5696 5704 5713 5719 5726 5733 5737 5741 5745 5748 5750 5754 5756 5757 5759 5761 5762 5763 5764 5766 5766 5767 5768 5768 5768 5768 5768 5768 5768 5768 5767 5767 5767 5766 5766 5766 5765 5764 5764 5763 5760 5759 5758
5647 5656 5667 5677 5687 5695 5705 5712 5719 5726 5730 5736 5740 5743 5747 5750 5752 5753 5755 5758 5759 5761 5762 5763 5764 5764 5765 5765 5765 5764 5764 5764 5763 5763 5763 5761 5761 5761 5761 5761 5761 5760 5759 5758 5756 5754 5752
5636 5646 5656 5666 5677 5686 5696 5704 5713 5719 5724 5730 5735 5738 5743 5746 5747 5750 5752 5755 5756 5758 5758 5759 5760 5761 5761 5761 5761 5760 5760 5760 5759 5758 5757 5757 5755 5755 5755 5755 5755 5754 5753 5753 5751 5749 5748
5625 5636 5647 5657 5668 5677 5688 5697 5706 5712 5718 5724 5729 5733 5738 5741 5744 5747 5749 5750 5752 5753 5754 5756 5757 5758 5758 5757 5757 5757 5756 5755 5754 5753 5751 5750 5749 5750 5749 5748 5747 5747 5747 5747 5746 5745 5742
5614 5625 5637 5648 5658 5669 5680 5689 5699 5706 5713 5719 5723 5730 5734 5737 5741 5743 5744 5747 5748 5750 5752 5754 5754 5755 5755 5755 5754 5753 5751 5749 5748 5747 5745 5743 5741 5740 5740 5740 5740 5740 5740 5740 5740 5740 5737
5604 5615 5626 5638 5649 5660 5671 5682 5691 5699 5706 5713 5718 5724 5728 5733 5737 5738 5740 5743 5744 5747 5750 5751 5752 5753 5752 5751 5750 5748 5747 5745 5742 5740 5738 5736 5733 5730 5730 5732 5732 5732 5733 5733 5733 5733 5732
5593 5605 5616 5629 5640 5651 5663 5674 5683 5693 5700 5707 5714 5719 5724 5729 5732 5734 5736 5738 5742 5744 5747 5749 5750 5749 5749 5748 5746 5744 5741 5739 5736 5732 5728 5725 5723 5721 5720 5720 5722 5724 5725 5726 5727 5728 5728
5581 5594 5606 5619 5630 5642 5654 5666 5675 5685 5694 5701 5708 5714 5720 5725 5728 5730 5733 5736 5740 5743 5745 5746 5747 5747 5745 5744 5742 5738 5734 5731 5726 5720 5716 5713 5710 5708 5707 5709 5712 5714 5716 5719 5722 5724 5724
5568 5583 5596 5609 5621 5634 5647 5658 5667 5678 5687 5696 5703 5711 5716 5721 5725 5728 5732 5735 5739 5742 5744 5745 5745 5744 5742 5740 5737 5732 5727 5720 5713 5707 5701 5696 5694 5692 5691 5695 5700 5705 5710 5714 5717 5719 5720
5556 5571 5585 5599 5612 5625 5637 5651 5662 5672 5682 5690 5699 5707 5713 5718 5722 5727 5731 5734 5738 5740 5742 5743 5742 5742 5740 5737 5732 5726 5717 5709 5700 5691 5686 5681 5678 5678 5681 5688 5692 5698 5703 5707 5712 5715 5717
5543 5560 5575 5590 5604 5617 5630 5644 5655 5666 5676 5685 5695 5703 5710 5714 5720 5724 5728 5733 5736 5739 5740 5740 5740 5740 5738 5734 5729 5722 5712 5701 5689 5679 5674 5673 5676 5678 5679 5682 5688 5694 5699 5705 5710 5713 5716
5529 5548 5565 5580 5596 5609 5624 5637 5649 5660 5670 5680 5691 5699 5706 5712 5716 5722 5727 5731 5734 5737 5738 5738 5739 5738 5736 5733 5728 5721 5712 5702 5689 5683 5681 5678 5677 5678 5682 5684 5690 5694 5700 5705 5710 5715 5717
5517 5537 5555 5571 5588 5602 5617 5631 5643 5655 5666 5677 5687 5695 5702 5708 5714 5720 5725 5729 5732 5735 5736 5737 5738 5737 5736 5732 5728 5722 5715 5705 5698 5693 5689 5686 5685 5686 5686 5690 5693 5698 5703 5708 5713 5717 5718
5507 5526 5545 5563 5580 5596 5611 5625 5638 5650 5661 5673 5683 5691 5698 5705 5711 5719 5723 5726 5729 5733 5734 5736 5737 5736 5736 5732 5730 5725 5720 5714 5708 5702 5698 5696 5695 5694 5695 5698 5701 5705 5709 5713 5717 5722 5719
5498 5515 5536 5555 5573 5590 5605 5620 5633 5645 5657 5669 5679 5687 5695 5702 5710 5715 5720 5723 5727 5730 5733 5735 5736 5736 5735 5734 5732 5728 5724 5721 5716 5712 5708 5706 5705 5703 5704 5706 5709 5711 5715 5718 5720 5720 5720
5490 5508 5529 5548 5567 5584 5600 5615 5628 5641 5654 5665 5675 5683 5691 5700 5708 5713 5717 5722 5726 5729 5731 5733 5735 5735 5735 5735 5733 5730 5728 5726 5722 5719 5717 5715 5714 5713 5713 5715 5716 5717 5720 5721 5721 5721 5721